When you browse on this site, cookies collect data to enhance your experience and personalize the content and advertising you see.
Visit our Privacy Policy to learn more. By continuing to use the site, you agree to this use of cookies and data.
  • In Spain
  • List of Countries
  • For 7 days
  • Water Temperature
  • Satellite Maps
  • Weather Map
  • Weather Widgets
  • user-avatar
    Login

    Hourly Weather Belkino

    Today, 20 March, Wednesday

    Time Temperature Precipitation Wind Pressure Humidity
    00:00 0°C° 0 mm 3 mps 747 mmHg 97%
    01:00 0°C° 0 mm 3 mps 747 mmHg 97%
    02:00 -1°C° 0 mm 3 mps 747 mmHg 97%
    03:00 -1°C° 0 mm 3 mps 747 mmHg 96%
    04:00 -1°C° 0 mm 3 mps 747 mmHg 96%
    05:00 -1°C° 0 mm 3 mps 747 mmHg 95%
    06:00 -1°C° 0 mm 3 mps 747 mmHg 94%
    07:00 -1°C° 0 mm 3 mps 747 mmHg 92%
    08:00 0°C° 0 mm 3 mps 748 mmHg 91%
    09:00 0°C° 0 mm 3 mps 748 mmHg 90%
    10:00 +1°C° 0 mm 3 mps 748 mmHg 86%
    11:00 +2°C° 0 mm 3 mps 748 mmHg 82%
    12:00 +3°C° 0 mm 3 mps 748 mmHg 79%
    13:00 +3°C° 0 mm 3 mps 748 mmHg 77%
    14:00 +3°C° 0 mm 3 mps 748 mmHg 75%
    15:00 +3°C° 0 mm 3 mps 748 mmHg 74%
    16:00 +2°C° 0 mm 3 mps 748 mmHg 77%
    17:00 +2°C° 0 mm 3 mps 748 mmHg 81%
    18:00 +2°C° 0 mm 2 mps 748 mmHg 84%
    19:00 +1°C° 0 mm 2 mps 748 mmHg 86%
    20:00 -1°C° 0 mm 2 mps 748 mmHg 89%
    21:00 -2°C° 0 mm 2 mps 749 mmHg 91%
    22:00 -2°C° 0 mm 2 mps 748 mmHg 90%
    23:00 -2°C° 0 mm 2 mps 748 mmHg 90%

    Tomorrow, 21 March, Thursday

    Time Temperature Precipitation Wind Pressure Humidity
    00:00 -2°C° 0 mm 2 mps 748 mmHg 90%
    01:00 -2°C° 0 mm 2 mps 748 mmHg 88%
    02:00 -2°C° 0 mm 3 mps 748 mmHg 86%
    03:00 -2°C° 0 mm 3 mps 748 mmHg 84%
    04:00 -1°C° 0 mm 3 mps 747 mmHg 82%
    05:00 -1°C° 0 mm 3 mps 747 mmHg 80%
    06:00 -1°C° 0 mm 3 mps 746 mmHg 78%
    07:00 -1°C° 0 mm 3 mps 746 mmHg 77%
    08:00 -2°C° 0 mm 4 mps 746 mmHg 77%
    09:00 -2°C° 0 mm 5 mps 745 mmHg 76%
    10:00 -1°C° 0.3 mm 5 mps 745 mmHg 79%
    11:00 -1°C° 0.3 mm 5 mps 745 mmHg 81%
    12:00 -1°C° 0.3 mm 5 mps 744 mmHg 84%
    13:00 0°C° 0.1 mm 4 mps 744 mmHg 84%
    14:00 0°C° 0.1 mm 4 mps 744 mmHg 84%
    15:00 +1°C° 0.1 mm 3 mps 744 mmHg 84%
    16:00 +1°C° 0.1 mm 3 mps 744 mmHg 86%
    17:00 0°C° 0.1 mm 4 mps 744 mmHg 88%
    18:00 0°C° 0.1 mm 4 mps 744 mmHg 90%
    19:00 0°C° 0.1 mm 4 mps 745 mmHg 89%
    20:00 -1°C° 0.1 mm 4 mps 745 mmHg 88%
    21:00 -1°C° 0.1 mm 4 mps 745 mmHg 86%
    22:00 -2°C° 0 mm 4 mps 745 mmHg 88%
    23:00 -2°C° 0 mm 4 mps 745 mmHg 90%

    Day after tomorrow, 22 March, Friday

    Time Temperature Precipitation Wind Pressure Humidity
    00:00 -2°C° 0 mm 3 mps 745 mmHg 92%
    01:00 -2°C° 0 mm 3 mps 745 mmHg 92%
    02:00 -2°C° 0 mm 3 mps 745 mmHg 92%
    03:00 -2°C° 0 mm 2 mps 746 mmHg 92%
    04:00 -2°C° 0 mm 2 mps 745 mmHg 92%
    05:00 -2°C° 0 mm 2 mps 745 mmHg 91%
    06:00 -2°C° 0 mm 2 mps 745 mmHg 91%
    07:00 -1°C° 0 mm 2 mps 745 mmHg 89%
    08:00 0°C° 0 mm 3 mps 745 mmHg 88%
    09:00 0°C° 0 mm 3 mps 745 mmHg 86%
    10:00 +1°C° 0.1 mm 3 mps 744 mmHg 85%
    11:00 +2°C° 0.1 mm 3 mps 744 mmHg 84%
    12:00 +1°C° 0.1 mm 4 mps 743 mmHg 82%
    13:00 +1°C° 0.4 mm 4 mps 743 mmHg 84%
    14:00 +1°C° 0.4 mm 4 mps 742 mmHg 86%
    15:00 +1°C° 0.4 mm 5 mps 741 mmHg 88%
    16:00 +1°C° 0 mm 4 mps 741 mmHg 90%
    17:00 +1°C° 0 mm 4 mps 741 mmHg 92%
    18:00 +1°C° 0 mm 4 mps 741 mmHg 95%
    19:00 +1°C° 0 mm 4 mps 742 mmHg 93%
    20:00 +1°C° 0 mm 4 mps 742 mmHg 91%
    21:00 +1°C° 0 mm 5 mps 742 mmHg 89%
    22:00 0°C° 0 mm 5 mps 742 mmHg 90%
    23:00 -1°C° 0 mm 5 mps 742 mmHg 90%

    23 March, Saturday

    Time Temperature Precipitation Wind Pressure Humidity
    00:00 -1°C° 0 mm 4 mps 742 mmHg 90%
    01:00 -2°C° 0 mm 4 mps 742 mmHg 88%
    02:00 -2°C° 0 mm 4 mps 743 mmHg 87%
    03:00 -3°C° 0 mm 4 mps 743 mmHg 85%
    04:00 -3°C° 0 mm 4 mps 743 mmHg 85%
    05:00 -4°C° 0 mm 4 mps 743 mmHg 85%
    06:00 -4°C° 0 mm 4 mps 743 mmHg 85%
    07:00 -3°C° 0 mm 4 mps 743 mmHg 83%
    08:00 -3°C° 0 mm 4 mps 744 mmHg 81%
    09:00 -3°C° 0 mm 4 mps 744 mmHg 79%
    10:00 -1°C° 0 mm 4 mps 744 mmHg 75%
    11:00 0°C° 0 mm 4 mps 744 mmHg 71%
    12:00 +1°C° 0 mm 4 mps 744 mmHg 67%
    13:00 +2°C° 0 mm 3 mps 743 mmHg 66%
    14:00 +3°C° 0 mm 3 mps 743 mmHg 65%
    15:00 +4°C° 0 mm 3 mps 742 mmHg 64%
    16:00 +3°C° 0 mm 3 mps 742 mmHg 68%
    17:00 +2°C° 0 mm 3 mps 741 mmHg 72%
    18:00 +3°C° 0 mm 2 mps 741 mmHg 75%
    19:00 +2°C° 0 mm 3 mps 740 mmHg 78%
    20:00 +1°C° 0 mm 4 mps 740 mmHg 81%
    21:00 +1°C° 0 mm 5 mps 739 mmHg 84%
    22:00 +2°C° 0.1 mm 5 mps 738 mmHg 87%
    23:00 +2°C° 0.1 mm 5 mps 737 mmHg 90%

    24 March, Sunday

    Time Temperature Precipitation Wind Pressure Humidity
    00:00 +3°C° 0.1 mm 6 mps 736 mmHg 94%
    01:00 +3°C° 0.6 mm 6 mps 736 mmHg 93%
    02:00 +3°C° 0.6 mm 6 mps 736 mmHg 92%
    03:00 +3°C° 0.6 mm 6 mps 736 mmHg 91%
    04:00 +2°C° 0 mm 5 mps 736 mmHg 90%
    05:00 0°C° 0 mm 5 mps 737 mmHg 90%
    06:00 -1°C° 0 mm 5 mps 737 mmHg 89%
    07:00 -1°C° 0 mm 5 mps 737 mmHg 82%
    08:00 -1°C° 0 mm 6 mps 737 mmHg 76%
    09:00 -1°C° 0 mm 7 mps 737 mmHg 70%
    10:00 0°C° 0 mm 8 mps 737 mmHg 63%
    11:00 +1°C° 0 mm 9 mps 737 mmHg 55%
    12:00 +1°C° 0 mm 10 mps 737 mmHg 48%
    13:00 +1°C° 0 mm 10 mps 736 mmHg 48%
    14:00 +2°C° 0 mm 10 mps 736 mmHg 48%
    15:00 +2°C° 0 mm 10 mps 736 mmHg 48%
    16:00 +1°C° 0 mm 9 mps 736 mmHg 51%
    17:00 0°C° 0 mm 8 mps 736 mmHg 55%
    18:00 0°C° 0 mm 7 mps 736 mmHg 58%
    19:00 -1°C° 0 mm 6 mps 736 mmHg 60%
    20:00 -1°C° 0 mm 6 mps 736 mmHg 63%
    21:00 -1°C° 0 mm 5 mps 736 mmHg 66%
    22:00 -3°C° 0 mm 6 mps 736 mmHg 66%
    23:00 -3°C° 0 mm 6 mps 736 mmHg 66%

    25 March, Monday

    Time Temperature Precipitation Wind Pressure Humidity
    00:00 -3°C° 0 mm 6 mps 736 mmHg 66%
    01:00 -4°C° 0 mm 6 mps 736 mmHg 66%
    02:00 -4°C° 0 mm 5 mps 736 mmHg 66%
    03:00 -4°C° 0 mm 5 mps 736 mmHg 66%
    04:00 -4°C° 0 mm 5 mps 736 mmHg 66%
    05:00 -5°C° 0 mm 5 mps 736 mmHg 67%
    06:00 -5°C° 0 mm 5 mps 736 mmHg 67%
    07:00 -4°C° 0 mm 5 mps 736 mmHg 63%
    08:00 -2°C° 0 mm 5 mps 736 mmHg 60%
    09:00 -3°C° 0 mm 6 mps 736 mmHg 56%
    10:00 -1°C° 0 mm 5 mps 736 mmHg 52%
    11:00 +1°C° 0 mm 5 mps 735 mmHg 47%
    12:00 +2°C° 0 mm 5 mps 735 mmHg 43%
    13:00 +2°C° 0 mm 5 mps 734 mmHg 43%
    14:00 +3°C° 0 mm 5 mps 734 mmHg 43%
    15:00 +3°C° 0 mm 5 mps 733 mmHg 43%
    16:00 +3°C° 0.1 mm 5 mps 733 mmHg 50%
    17:00 +3°C° 0.1 mm 4 mps 732 mmHg 58%
    18:00 +2°C° 0.1 mm 3 mps 732 mmHg 65%
    19:00 +2°C° 0.1 mm 3 mps 731 mmHg 69%
    20:00 +1°C° 0.1 mm 3 mps 731 mmHg 72%
    21:00 +1°C° 0.1 mm 3 mps 731 mmHg 76%
    22:00 0°C° 0.1 mm 3 mps 730 mmHg 79%
    23:00 0°C° 0.1 mm 3 mps 729 mmHg 83%
    Show more